| time (UTC) | temp C | wind direction | speed KPH | gust KPH | rain 1hr cm | rain 24hr cm | rain mn cm | humidity % | barometer mb |
| 20260504081553 | 11 | 0 | 0.0 | 3.2 | 0.00 | 0.46 | 0.18 | 92 | 1015.1 |
| 20260504044558 | 10 | 0 | 0.0 | 0.0 | 0.00 | 0.28 | 0.00 | 91 | 1015.1 |
| 20260504043055 | 10 | 0 | 0.0 | 0.0 | 0.00 | 0.28 | 0.00 | 91 | 1015.1 |
| 20260504041553 | 10 | 0 | 0.0 | 0.0 | 0.00 | 0.28 | 0.00 | 91 | 1015.1 |
| 20260504034559 | 10 | 0 | 0.0 | 0.0 | 0.00 | 0.28 | 0.00 | 91 | 1015.1 |
| 20260504033125 | 10 | 0 | 0.0 | 0.0 | 0.00 | 0.28 | 0.00 | 91 | 1015.2 |
| 20260504031558 | 10 | 0 | 0.0 | 0.0 | 0.00 | 0.28 | 0.00 | 90 | 1015.3 |
| 20260504030051 | 10 | 0 | 0.0 | 0.0 | 0.00 | 0.28 | 0.00 | 90 | 1015.4 |
| 20260504024550 | 10 | 0 | 0.0 | 0.0 | 0.00 | 0.33 | 0.00 | 90 | 1015.3 |
| 20260504023100 | 10 | 0 | 0.0 | 0.0 | 0.00 | 0.33 | 0.00 | 90 | 1015.4 |
| 20260504021552 | 10 | 0 | 0.0 | 0.0 | 0.00 | 0.33 | 0.00 | 90 | 1015.3 |
| 20260504020057 | 10 | 0 | 0.0 | 0.0 | 0.00 | 0.33 | 0.00 | 90 | 1015.5 |
| 20260504014550 | 10 | 0 | 0.0 | 6.4 | 0.00 | 0.53 | 0.00 | 90 | 1015.6 |
| 20260504013105 | 10 | 0 | 1.6 | 4.8 | 0.00 | 0.53 | 0.00 | 90 | 1015.6 |
| 20260504011551 | 10 | 0 | 0.0 | 0.0 | 0.00 | 0.53 | 0.00 | 90 | 1015.6 |
| 20260504010059 | 10 | 0 | 0.0 | 3.2 | 0.00 | 0.53 | 0.00 | 90 | 1015.6 |
| 20260504004603 | 10 | 0 | 0.0 | 0.0 | 0.00 | 0.74 | 0.00 | 90 | 1015.8 |
| 20260504003045 | 10 | 0 | 0.0 | 1.6 | 0.00 | 0.74 | 0.00 | 89 | 1015.9 |
| 20260504001554 | 10 | 0 | 0.0 | 1.6 | 0.00 | 0.74 | 0.00 | 89 | 1016.0 |
| 20260504000045 | 10 | 0 | 0.0 | 1.6 | 0.00 | 0.74 | 0.00 | 89 | 1015.9 |
| 20260503234547 | 10 | 0 | 0.0 | 4.8 | 0.00 | 0.76 | 0.00 | 89 | 1016.0 |
| 20260503233050 | 10 | 0 | 0.0 | 3.2 | 0.00 | 0.76 | 0.00 | 89 | 1016.2 |
| 20260503231547 | 10 | 0 | 0.0 | 0.0 | 0.00 | 0.76 | 0.00 | 89 | 1016.1 |
| 20260503230052 | 10 | 0 | 0.0 | 1.6 | 0.00 | 0.76 | 0.00 | 89 | 1016.2 |
| 20260503224550 | 10 | 0 | 0.0 | 0.0 | 0.00 | 0.76 | 0.00 | 88 | 1016.3 |
| 20260503223056 | 10 | 0 | 0.0 | 1.6 | 0.00 | 0.76 | 0.00 | 88 | 1016.3 |
| 20260503221555 | 10 | 0 | 0.0 | 0.0 | 0.00 | 0.76 | 0.00 | 87 | 1016.2 |
| 20260503220050 | 10 | 0 | 0.0 | 4.8 | 0.00 | 0.76 | 0.00 | 87 | 1016.3 |
| 20260503214553 | 10 | 0 | 0.0 | 1.6 | 0.00 | 0.76 | 0.76 | 86 | 1016.5 |
| 20260503213105 | 10 | 0 | 0.0 | 3.2 | 0.00 | 0.76 | 0.76 | 85 | 1016.5 |
| 20260503211551 | 10 | 0 | 0.0 | 4.8 | 0.00 | 0.76 | 0.76 | 84 | 1016.4 |
| 20260503210100 | 10 | 0 | 0.0 | 4.8 | 0.00 | 0.76 | 0.76 | 83 | 1016.2 |
| 20260503204611 | 11 | 0 | 0.0 | 1.6 | 0.00 | 0.76 | 0.76 | 83 | 1016.1 |
| 20260503203047 | 11 | 0 | 1.6 | 8.0 | 0.00 | 0.76 | 0.76 | 81 | 1016.2 |
| 20260503201551 | 11 | 0 | 3.2 | 12.9 | 0.08 | 0.76 | 0.76 | 81 | 1016.0 |
| 20260503200058 | 11 | 290 | 3.2 | 16.1 | 0.13 | 0.76 | 0.76 | 82 | 1015.9 |
| 20260503194554 | 11 | 0 | 14.5 | 27.4 | 0.15 | 0.76 | 0.76 | 84 | 1015.8 |
| 20260503193056 | 11 | 267 | 6.4 | 24.1 | 0.15 | 0.76 | 0.76 | 85 | 1015.4 |
| 20260503191552 | 11 | 253 | 4.8 | 30.6 | 0.08 | 0.69 | 0.69 | 85 | 1015.4 |
| 20260503190051 | 11 | 278 | 8.0 | 20.9 | 0.00 | 0.64 | 0.64 | 86 | 1014.7 |
| 20260503184559 | 12 | 308 | 1.6 | 9.7 | 0.00 | 0.61 | 0.61 | 87 | 1014.2 |
| 20260503183113 | 12 | 294 | 3.2 | 12.9 | 0.00 | 0.61 | 0.61 | 87 | 1014.2 |
| 20260503181550 | 12 | 349 | 1.6 | 12.9 | 0.00 | 0.61 | 0.61 | 87 | 1014.3 |
| 20260503180054 | 12 | 263 | 4.8 | 11.3 | 0.00 | 0.61 | 0.61 | 87 | 1014.5 |
| 20260503174550 | 12 | 261 | 3.2 | 11.3 | 0.00 | 0.61 | 0.61 | 88 | 1014.6 |
| 20260503173112 | 12 | 273 | 1.6 | 11.3 | 0.00 | 0.61 | 0.61 | 88 | 1014.7 |
| 20260503171550 | 12 | 0 | 1.6 | 11.3 | 0.03 | 0.61 | 0.61 | 87 | 1014.9 |